Stations météo

réclame
Mon MeteoGroup
Lycksele, Suède (2261): Température de l'air & dewpoint: 09.11.2018 22:00:00 - 15.11.2018 22:00:00 (CET)Lycksele, Suède (2261): Vitesse du vent & gusts: 09.11.2018 22:00:00 - 15.11.2018 22:00:00 (CET)Lycksele, Suède (2261): Direction du vent: 09.11.2018 22:00:00 - 15.11.2018 22:00:00 (CET)Lycksele, Suède (2261): reduced air pressure: 09.11.2018 22:00:00 - 15.11.2018 22:00:00 (CET)Lycksele, Suède (2261): visibility: 09.11.2018 22:00:00 - 15.11.2018 22:00:00 (CET)Lycksele, Suède (2261): Quantités de précipitations: 09.11.2018 22:00:00 - 15.11.2018 22:00:00 (CET)
Date & Time tt [°C] td [°C] ff [km/h] ff [knt] fx [km/h] fx [knt] dd ppp [hPa] vv [km] rr [mm]
15.11.2018 22:00:00 0,9 0,9 0 0 5 3 N 1022,2 8 0,0
15.11.2018 21:00:00 0,6 0,6 0 0 5 3 N 1022,0 18 0,0
15.11.2018 20:00:00 0,5 0,5 0 0 6 3 N 1021,6 45 0,4
15.11.2018 19:00:00 0,0 0,0 2 1 4 2 SE 1021,1 16 0,0
15.11.2018 18:00:00 -0,4 -0,4 0 0 4 2 N 1020,5 8 0,0
15.11.2018 17:00:00 0,0 0,0 0 0 6 4 N 1019,8 34 0,0
15.11.2018 16:00:00 -0,1 -0,1 3 2 7 4 SE 1019,3 40 0,0
15.11.2018 15:00:00 0,4 0,4 0 0 8 5 N 1019,0 50 0,0
15.11.2018 14:00:00 0,9 0,9 5 3 8 5 SSE 1018,4 50 0,0
15.11.2018 13:00:00 1,1 1,1 3 1 7 4 SE 1018,2 50 0,0
15.11.2018 12:00:00 1,2 1,2 0 0 9 5 N 1017,8 50 0,0
15.11.2018 11:00:00 0,8 0,8 0 0 8 4 N 1017,7 50 0,0
15.11.2018 10:00:00 0,3 0,3 4 2 16 9 SE 1017,4 50 0,0
15.11.2018 09:00:00 0,5 0,5 3 2 12 7 S 1017,4 50 0,0
15.11.2018 08:00:00 0,7 0,7 6 4 18 10 S 1016,9 50 0,0
15.11.2018 07:00:00 0,8 0,8 6 3 14 8 SSE 1016,3 50 0,0
15.11.2018 06:00:00 0,8 0,8 7 4 15 8 SSE 1016,0 50 0,0
15.11.2018 05:00:00 0,8 0,8 7 4 13 7 SSE 1016,2 50 0,0
15.11.2018 04:00:00 0,2 0,2 4 2 19 10 SSE 1016,6 50 0,0
15.11.2018 03:00:00 0,3 0,3 10 5 18 10 SE 1016,3 50 0,0
15.11.2018 02:00:00 0,8 0,8 12 7 16 9 ESE 1016,5 50 0,0
15.11.2018 01:00:00 0,8 0,8 13 7 18 10 SE 1016,8 50 0,0
15.11.2018 00:00:00 0,2 0,2 11 6 14 7 SSE 1016,9 50 0,0
14.11.2018 23:00:00 -1,3 -1,3 4 2 14 8 NNW 1017,5 35 0,0
14.11.2018 22:00:00 0,5 0,5 10 6 14 8 SE 1017,1 50 0,0
14.11.2018 21:00:00 -0,6 -0,6 6 3 11 6 SSE 1017,4 50 0,0
14.11.2018 20:00:00 -2,5 -2,5 0 0 5 3 N 1018,2 50 0,0
14.11.2018 19:00:00 -3,1 -3,1 0 0 2 1 N 1018,6 50 0,0
14.11.2018 18:00:00 -3,6 -3,6 0 0 2 1 N 1018,7 50 0,0
14.11.2018 17:00:00 -3,7 -3,7 0 0 3 1 N 1018,7 50 0,0
14.11.2018 16:00:00 -3,6 -3,6 0 0 3 2 N 1018,6 50 0,0
14.11.2018 15:00:00 -3,4 -3,4 0 0 3 2 N 1018,3 46 0,0
14.11.2018 14:00:00 -2,6 -2,6 0 0 2 1 N 1018,4 50 0,0
14.11.2018 13:00:00 -2,2 -2,2 0 0 2 1 N 1018,2 50 0,0
14.11.2018 12:00:00 -0,4 -0,4 0 0 3 1 N 1017,8 36 0,0
14.11.2018 11:00:00 -1,8 -1,8 0 0 2 1 N 1017,4 50 0,0
14.11.2018 10:00:00 -3,4 -3,4 0 0 2 1 N 1017,0 50 0,0
14.11.2018 09:00:00 -3,9 -3,9 0 0 2 1 N 1016,4 50 0,0
14.11.2018 08:00:00 -4,6 -4,6 0 0 3 2 N 1015,8 50 0,0
14.11.2018 07:00:00 -4,0 -4,0 3 2 5 3 WNW 1015,3 50 0,0
14.11.2018 06:00:00 -3,1 -3,1 3 2 6 3 WNW 1014,7 50 0,0
14.11.2018 05:00:00 -3,1 -3,1 0 0 5 3 N 1014,1 50 0,0
14.11.2018 04:00:00 -3,1 -3,1 4 2 5 3 NW 1013,6 36 0,0
14.11.2018 03:00:00 -2,2 -2,2 2 1 9 5 WNW 1013,2 19 0,0
14.11.2018 02:00:00 -2,2 -2,2 3 2 5 3 NW 1012,6 50 0,0
14.11.2018 01:00:00 -1,1 -1,1 0 0 3 2 N 1011,9 46 0,0
14.11.2018 00:00:00 -1,6 -1,6 3 1 4 2 WNW 1011,6 30 0,0
13.11.2018 23:00:00 -1,1 -1,1 0 0 6 3 N 1011,1 26 0,0
13.11.2018 22:00:00 -0,6 -0,6 4 2 9 5 WNW 1010,7 14 0,0
13.11.2018 21:00:00 -0,3 -0,3 0 0 5 3 N 1010,3 5 0,0
13.11.2018 20:00:00 0,3 0,3 0 0 3 1 N 1009,7 20 0,0
13.11.2018 19:00:00 0,7 0,7 2 1 5 3 S 1009,2 1,7 0,0
13.11.2018 18:00:00 1,6 1,6 0 0 4 2 N 1008,9 1,4 0,0
13.11.2018 17:00:00 0,8 0,8 0 0 5 3 N 1008,6 2,2 0,0
13.11.2018 16:00:00 0,9 0,9 0 0 4 2 N 1008,1 1,0 0,0
13.11.2018 15:00:00 2,1 2,1 0 0 7 4 N 1007,6 1,0 0,0
13.11.2018 14:00:00 4,5 4,5 3 2 7 4 W 1006,9 50 0,0
13.11.2018 13:00:00 5,6 5,6 0 0 9 5 N 1006,6 50 0,0
13.11.2018 12:00:00 5,4 5,4 2 1 8 4 W 1006,5 50 0,0
13.11.2018 11:00:00 4,5 4,5 0 0 12 6 N 1006,6 50 0,0
13.11.2018 10:00:00 4,5 4,5 6 3 12 6 W 1006,2 50 0,0
13.11.2018 09:00:00 3,6 3,6 2 1 10 6 N 1006,1 50 0,0
13.11.2018 08:00:00 2,7 2,7 3 2 8 4 W 1005,8 50 0,0
13.11.2018 07:00:00 2,8 2,8 3 1 8 4 WSW 1005,6 14 0,0
13.11.2018 06:00:00 4,3 4,3 3 1 11 6 W 1005,3 50 0,0
13.11.2018 05:00:00 5,4 5,4 4 2 11 6 W 1005,1 50 0,0
13.11.2018 04:00:00 6,3 6,3 5 3 14 8 WSW 1005,1 50 0,0
13.11.2018 03:00:00 5,3 5,3 6 3 11 6 SE 1005,4 20 0,0
13.11.2018 02:00:00 5,0 5,0 7 4 13 7 SE 1005,7 14 0,0
13.11.2018 01:00:00 4,8 4,8 8 4 14 8 SE 1006,1 25 0,0
13.11.2018 00:00:00 5,4 5,4 10 6 16 9 SE 1006,3 17 0,0
12.11.2018 23:00:00 5,5 5,5 12 7 18 10 SE 1006,8 14 0,0
12.11.2018 22:00:00 6,0 6,0 11 6 20 11 SE 1007,0 50 0,0
12.11.2018 21:00:00 5,7 5,7 10 5 18 10 SE 1007,3 14 0,0
12.11.2018 20:00:00 6,0 6,0 11 6 21 12 SSE 1007,4 50 0,0
12.11.2018 19:00:00 6,0 6,0 11 6 19 11 SSE 1007,9 50 0,1
12.11.2018 18:00:00 5,6 5,6 7 4 19 10 SE 1008,2 50 0,0
12.11.2018 17:00:00 5,5 5,5 13 7 16 9 SSE 1008,4 37 0,0
12.11.2018 16:00:00 5,4 5,4 12 6 26 14 SE 1008,8 4,5 0,1
12.11.2018 15:00:00 5,7 5,7 18 10 31 17 SSE 1009,0 16 0,0
12.11.2018 14:00:00 5,6 5,6 14 8 26 14 SSE 1009,5 31 0,3
12.11.2018 13:00:00 4,9 4,9 13 7 20 11 SE 1010,2 13 1,9
12.11.2018 12:00:00 4,9 4,9 16 8 26 14 SE 1011,1 15 0,6
12.11.2018 11:00:00 4,9 4,9 19 11 30 16 SSE 1011,5 22 0,5
12.11.2018 10:00:00 4,8 4,8 20 11 32 17 SSE 1012,2 6 0,0
12.11.2018 09:00:00 4,9 4,9 19 11 34 19 SSE 1012,8 10 0,9
12.11.2018 08:00:00 4,9 4,9 18 10 38 20 SE 1013,1 4,7 0,0
12.11.2018 07:00:00 5,4 5,4 24 13 36 19 SSE 1012,7 27 0,0
12.11.2018 06:00:00 5,0 5,0 22 12 29 16 SE 1013,5 4,5 0,0
12.11.2018 05:00:00 4,7 4,7 17 9 29 15 SE 1013,9 3,6 0,0
12.11.2018 04:00:00 5,0 5,0 16 9 31 17 SSE 1014,4 10 0,0
12.11.2018 03:00:00 4,9 4,9 13 7 23 12 SSE 1015,0 7 0,0
12.11.2018 02:00:00 4,7 4,7 14 7 19 11 SE 1015,4 3,5 0,0
12.11.2018 01:00:00 4,2 4,2 10 5 19 10 SE 1015,8 3,2 0,0
12.11.2018 00:00:00 4,1 4,1 12 7 20 11 SE 1016,2 3,7 0,0
11.11.2018 23:00:00 4,2 4,2 13 7 21 11 SE 1016,6 3,5 0,0
11.11.2018 22:00:00 4,2 4,2 12 7 20 11 SE 1017,1 3,6 0,0
11.11.2018 21:00:00 4,5 4,5 14 8 25 13 SE 1017,4 7 0,0
11.11.2018 20:00:00 4,4 4,4 11 6 21 11 SE 1017,6 3,7 0,0
11.11.2018 19:00:00 4,5 4,5 13 7 21 12 SSE 1017,9 5 0,0
11.11.2018 18:00:00 4,3 4,3 12 7 20 11 SE 1017,9 6 0,0
11.11.2018 17:00:00 3,9 3,9 10 6 19 10 SE 1018,2 2,9 0,0
11.11.2018 16:00:00 3,8 3,8 11 6 18 10 SE 1018,5 2,5 0,0
11.11.2018 15:00:00 3,8 3,8 13 7 21 12 SE 1018,7 10 0,0
11.11.2018 14:00:00 4,0 4,0 15 8 22 12 SE 1019,1 4,6 0,1
11.11.2018 13:00:00 3,9 3,9 13 7 25 13 SE 1019,4 6 0,2
11.11.2018 12:00:00 3,8 3,8 15 8 21 11 SE 1019,6 3,2 0,0
11.11.2018 11:00:00 3,3 3,3 16 9 23 12 SE 1020,0 2,9 0,2
11.11.2018 10:00:00 3,2 3,2 11 6 20 11 SE 1020,4 4,0 0,0
11.11.2018 09:00:00 3,5 3,5 11 6 21 12 SE 1020,5 45 0,2
11.11.2018 08:00:00 3,2 3,2 12 7 22 12 SE 1020,2 1,4 0,3
11.11.2018 07:00:00 3,1 3,1 14 8 24 13 SE 1020,4 2,7 0,0
11.11.2018 06:00:00 3,1 3,1 16 9 24 13 SE 1020,2 4,3 0,0
11.11.2018 05:00:00 3,0 3,0 13 7 24 13 SE 1020,4 4,3 0,0
11.11.2018 04:00:00 2,7 2,7 19 10 23 13 SE 1020,5 2,5 0,0
11.11.2018 03:00:00 2,7 2,7 12 7 23 12 SE 1020,9 2,2 0,0
11.11.2018 02:00:00 2,6 2,6 14 8 22 12 SE 1021,0 2,3 0,0
11.11.2018 01:00:00 2,5 2,5 13 7 25 14 SE 1021,2 6 0,0
11.11.2018 00:00:00 2,4 2,4 14 8 20 11 SE 1021,2 7 0,0
10.11.2018 23:00:00 2,5 2,5 13 7 22 12 SE 1021,6 11 0,0
10.11.2018 22:00:00 2,4 2,4 12 7 20 11 SE 1021,7 9 0,0
10.11.2018 21:00:00 2,4 2,4 13 7 21 11 SE 1021,6 4,6 0,0
10.11.2018 20:00:00 2,4 2,4 14 7 21 11 SE 1021,2 2,3 0,0
10.11.2018 19:00:00 2,4 2,4 14 7 21 11 ESE 1020,9 3,5 0,1
10.11.2018 18:00:00 2,2 2,2 8 4 11 6 SE 1021,5 50 0,2
10.11.2018 17:00:00 1,8 1,8 8 5 20 11 SE 1021,6 23 0,2
10.11.2018 16:00:00 2,1 2,1 15 8 24 13 SE 1021,6 15 1,2
10.11.2018 15:00:00 2,9 2,9 15 8 21 11 SE 1021,2 3,9 0,1
10.11.2018 14:00:00 3,2 3,2 9 5 18 10 SE 1021,2 3,9 0,1
10.11.2018 13:00:00 3,2 3,2 10 5 20 11 ESE 1021,3 3,2 0,0
10.11.2018 12:00:00 3,3 3,3 16 9 21 11 ESE 1021,2 3,2 0,0
10.11.2018 11:00:00 3,3 3,3 11 6 16 9 ESE 1021,3 2,4 0,0
10.11.2018 10:00:00 3,3 3,3 11 6 20 11 ESE 1021,3 3,7 0,0
10.11.2018 09:00:00 3,3 3,3 13 7 19 10 SE 1021,0 12 0,0
10.11.2018 08:00:00 3,3 3,3 12 7 16 9 SE 1020,8 9 0,0
10.11.2018 07:00:00 3,3 3,3 10 5 16 9 ESE 1020,6 9 0,2
10.11.2018 06:00:00 3,1 3,1 9 5 16 8 SE 1020,6 3,6 0,1
10.11.2018 05:00:00 3,2 3,2 8 5 15 8 ESE 1020,5 1,9 0,0
10.11.2018 04:00:00 2,7 2,7 5 3 8 5 SE 1020,7 7 0,0
10.11.2018 03:00:00 2,6 2,6 6 3 8 4 ESE 1020,9 2,9 0,4
10.11.2018 02:00:00 2,3 2,3 3 1 5 3 SE 1021,2 0,8 0,0
10.11.2018 01:00:00 2,0 2,0 0 0 6 4 N 1021,3 1,0 0,0
10.11.2018 00:00:00 1,6 1,6 0 0 3 2 N 1021,7 0,8 0,0
09.11.2018 23:00:00 1,3 1,3 0 0 2 1 N 1021,8 1,0 0,0
09.11.2018 22:00:00 1,1 1,1 0 0 2 1 N 1021,8 2,4 0,0

tt = Température de l'air
td = dewpoint
ff = Vitesse du vent
fx = gusts
dd = Direction du vent
ppp = reduced air pressure
vv = visibility
rr = Quantités de précipitations

stations d'obs. à proximité